| time (UTC) | temp C | wind direction | speed KPH | gust KPH | rain 1hr cm | rain 24hr cm | rain mn cm | humidity % | barometer mb |
| 20260503071500 | 11 | 250 | 0.0 | 0.0 | 0.00 | 0.00 | 0.00 | 52 | 1010.1 |
| 20260503054559 | 13 | 250 | 0.0 | 0.0 | 0.00 | 0.00 | 0.00 | 46 | 1009.7 |
| 20260503053055 | 13 | 250 | 0.0 | 0.0 | 0.00 | 0.00 | 0.00 | 44 | 1009.6 |
| 20260503051555 | 14 | 250 | 0.0 | 0.0 | 0.00 | 0.00 | 0.00 | 41 | 1009.3 |
| 20260503050055 | 15 | 250 | 0.0 | 0.0 | 0.00 | 0.00 | 0.00 | 39 | 1009.5 |
| 20260503044612 | 15 | 250 | 0.0 | 0.0 | 0.00 | 0.00 | 0.00 | 35 | 1009.3 |
| 20260503043058 | 16 | 250 | 0.0 | 0.0 | 0.00 | 0.00 | 0.00 | 34 | 1009.1 |
| 20260503041610 | 17 | 250 | 0.0 | 0.0 | 0.00 | 0.00 | 0.00 | 31 | 1008.9 |
| 20260503040054 | 17 | 250 | 0.0 | 0.0 | 0.00 | 0.00 | 0.00 | 31 | 1009.3 |
| 20260503034553 | 17 | 250 | 0.0 | 0.0 | 0.00 | 0.00 | 0.00 | 31 | 1009.2 |
| 20260503033106 | 17 | 250 | 0.0 | 0.0 | 0.00 | 0.00 | 0.00 | 31 | 1008.8 |
| 20260503031552 | 18 | 250 | 0.0 | 0.0 | 0.00 | 0.00 | 0.00 | 29 | 1008.8 |
| 20260503030054 | 18 | 250 | 0.0 | 0.0 | 0.00 | 0.00 | 0.00 | 27 | 1008.8 |
| 20260503024559 | 19 | 250 | 0.0 | 0.0 | 0.00 | 0.00 | 0.00 | 27 | 1008.6 |
| 20260503023054 | 20 | 250 | 0.0 | 0.0 | 0.00 | 0.00 | 0.00 | 29 | 1008.2 |
| 20260503021553 | 21 | 250 | 1.6 | 0.0 | 0.00 | 0.00 | 0.00 | 28 | 1008.1 |
| 20260503020055 | 22 | 250 | 1.6 | 0.0 | 0.00 | 0.00 | 0.00 | 27 | 1008.4 |
| 20260503014551 | 22 | 250 | 4.8 | 0.0 | 0.00 | 0.00 | 0.00 | 22 | 1008.5 |
| 20260503013048 | 22 | 301 | 3.2 | 0.0 | 0.00 | 0.00 | 0.00 | 22 | 1008.6 |
| 20260503011601 | 22 | 252 | 4.8 | 0.0 | 0.00 | 0.00 | 0.00 | 23 | 1008.5 |
| 20260503010046 | 23 | 298 | 3.2 | 0.0 | 0.00 | 0.00 | 0.00 | 24 | 1008.6 |
| 20260503004550 | 23 | 312 | 4.8 | 0.0 | 0.00 | 0.00 | 0.00 | 21 | 1008.7 |
| 20260503003044 | 23 | 313 | 4.8 | 0.0 | 0.00 | 0.00 | 0.00 | 23 | 1008.7 |
| 20260503001546 | 22 | 245 | 6.4 | 0.0 | 0.00 | 0.00 | 0.00 | 23 | 1008.7 |
| 20260503000044 | 22 | 274 | 6.4 | 0.0 | 0.00 | 0.00 | 0.00 | 23 | 1008.9 |
| 20260502234550 | 22 | 265 | 6.4 | 0.0 | 0.00 | 0.00 | 0.00 | 24 | 1008.6 |
| 20260502233042 | 22 | 262 | 9.7 | 0.0 | 0.00 | 0.00 | 0.00 | 22 | 1009.0 |
| 20260502231544 | 22 | 264 | 11.3 | 0.0 | 0.00 | 0.00 | 0.00 | 22 | 1009.3 |
| 20260502230041 | 23 | 260 | 8.0 | 0.0 | 0.00 | 0.00 | 0.00 | 24 | 1009.1 |
| 20260502224539 | 22 | 210 | 8.0 | 0.0 | 0.00 | 0.00 | 0.00 | 26 | 1009.1 |
| 20260502223038 | 22 | 205 | 8.0 | 0.0 | 0.00 | 0.00 | 0.00 | 27 | 1009.5 |
| 20260502221540 | 22 | 214 | 6.4 | 0.0 | 0.00 | 0.00 | 0.00 | 29 | 1009.8 |
| 20260502220051 | 22 | 198 | 8.0 | 0.0 | 0.00 | 0.00 | 0.00 | 28 | 1009.4 |
| 20260502214533 | 22 | 247 | 8.0 | 0.0 | 0.00 | 0.00 | 0.00 | 32 | 1009.8 |
| 20260502213037 | 20 | 274 | 6.4 | 0.0 | 0.00 | 0.00 | 0.00 | 35 | 1010.3 |
| 20260502211533 | 20 | 272 | 6.4 | 0.0 | 0.00 | 0.00 | 0.00 | 31 | 1010.4 |
| 20260502210031 | 21 | 237 | 6.4 | 0.0 | 0.00 | 0.00 | 0.00 | 32 | 1010.1 |
| 20260502204530 | 21 | 243 | 8.0 | 0.0 | 0.00 | 0.00 | 0.00 | 33 | 1010.2 |
| 20260502203028 | 20 | 264 | 6.4 | 0.0 | 0.00 | 0.00 | 0.00 | 31 | 1010.7 |
| 20260502201536 | 20 | 293 | 6.4 | 0.0 | 0.00 | 0.00 | 0.00 | 35 | 1010.8 |
| 20260502200026 | 20 | 259 | 6.4 | 0.0 | 0.00 | 0.00 | 0.00 | 36 | 1010.8 |
| 20260502194535 | 19 | 271 | 4.8 | 0.0 | 0.00 | 0.00 | 0.00 | 39 | 1011.2 |
| 20260502193018 | 18 | 239 | 4.8 | 0.0 | 0.00 | 0.00 | 0.00 | 38 | 1011.3 |
| 20260502191514 | 18 | 266 | 4.8 | 0.0 | 0.00 | 0.00 | 0.00 | 42 | 1011.9 |
| 20260502190009 | 17 | 248 | 3.2 | 0.0 | 0.00 | 0.00 | 0.00 | 38 | 1012.0 |
| 20260502184509 | 17 | 274 | 4.8 | 0.0 | 0.00 | 0.00 | 0.00 | 41 | 1012.1 |
| 20260502183003 | 17 | 257 | 3.2 | 0.0 | 0.00 | 0.00 | 0.00 | 43 | 1012.6 |
| 20260502181559 | 16 | 266 | 4.8 | 0.0 | 0.00 | 0.00 | 0.00 | 46 | 1012.8 |
| 20260502163057 | 13 | 264 | 1.6 | 0.0 | 0.00 | 0.00 | 0.00 | 52 | 1013.6 |
| 20260502161531 | 12 | 264 | 1.6 | 0.0 | 0.00 | 0.00 | 0.00 | 56 | 1013.9 |
| 20260502151528 | 9 | 264 | 0.0 | 0.0 | 0.00 | 0.00 | 0.00 | 63 | 1014.1 |
| 20260502123007 | 6 | 264 | 0.0 | 0.0 | 0.00 | 0.00 | 0.00 | 65 | 1013.1 |
| 20260502121505 | 7 | 264 | 0.0 | 0.0 | 0.00 | 0.00 | 0.00 | 64 | 1013.1 |
| 20260502114503 | 7 | 264 | 0.0 | 0.0 | 0.00 | 0.00 | 0.00 | 64 | 1012.9 |
| 20260502113003 | 7 | 264 | 0.0 | 0.0 | 0.00 | 0.00 | 0.00 | 62 | 1012.7 |
| 20260502111502 | 7 | 264 | 0.0 | 0.0 | 0.00 | 0.00 | 0.00 | 63 | 1012.8 |
| 20260502110005 | 7 | 264 | 0.0 | 0.0 | 0.00 | 0.00 | 0.00 | 65 | 1012.7 |
| 20260502104600 | 7 | 264 | 0.0 | 0.0 | 0.00 | 0.00 | 0.00 | 65 | 1012.7 |
| 20260502103101 | 7 | 264 | 0.0 | 0.0 | 0.00 | 0.00 | 0.00 | 63 | 1012.7 |
| 20260502101602 | 8 | 264 | 0.0 | 0.0 | 0.00 | 0.00 | 0.00 | 62 | 1012.5 |